loading
|

THOR ABLESTAR DEB, 530

Orbit data source: Space-Track

THOR ABLESTAR DEB, 530 is space debris in LEO originally from a launch on Thu, 29 Jun 1961 UTC launched from the Air Force Eastern Test Range (AFETR). Debris objects in space refer to the collection of defunct objects orbiting the Earth. Examples of debris include non-operational satellites, rocket bodies, and fragments generated from explosions, collisions, or faulty payload assembly.

Loading next visibility...
Loading greatness...
THOR ABLESTAR DEB details
Identifier
530, 1961-015FU
Orbit
LEO
Last TLE update14 hours ago
Origin
Flag of USUSAF SSD (US)
ManufacturerUnknown
Mission statusUnknown
MissionUnknown
Bus & MotorUnknown
MassUnknown
Launch date (UTC)
1961-06-29 (63 years ago)
Launch vehicleUnknown
Launch site
Air Force Eastern Test Range (AFETR)
Object type
Payload
Rocket body
Debris
Radar Cross SectionSmall (<0.1 m²)

Expand to show TLE details & history

TLE from 14 hours ago
0 THOR ABLESTAR DEB
1   530U 61015FU  24251.11617342  .00000543  00000-0  41608-3 0  9994
2   530  66.8791 126.9526 0086366 276.6350  82.4908 13.98957592217487
Epoch: 2024-09-07T02:47Z
Definitive object data (Epoch: 2024-09-07T02:47:17.383Z)
Latitude-0.00009°
Longitude98.45115°
Altitude891.819 km
Speed7.411 km/s
True Right ascension08h 27m 48s
True Declination0° 00' 00"
Sunlit
Object was in daylight at TLE epoch
Predictive object data (real-time)
Latitude59.51469°
Longitude-129.193°
Altitude967.5 km
Speed7.343 km/s
Apparent Right ascension19h 31m 36s
Apparent Declination16° 29' 36"
Sunlit
Object is in daylight
Predictive observer data (real-time)
Local Sidereal Time09:11:25
Azimuth27.543° NE
Elevation-28.987°
Doppler factor1
Orbital elements
Apogee958.607 km
Perigee832.963 km
Semi-major axis7,273.922 km
Eccentricity0.0086366
Inclination66.8791°
RAAN126.9526°
Arg. of periapsis276.635°
True anomaly83.47333°
Mean anomaly82.4908°
Eccentric anomaly82.98193°
Mean motion3.49857 °/min
BSTAR0.00041608
Period102.9 mins
No data available

THOR ABLESTAR DEB Visibility forecast

Observer location: 39.9160978°, -105.1181434

THOR ABLESTAR DEB is not visible in the next 10 days
Span
Click to sort rows by Start time (UTC) header in descending order
Start Az.
Max El. time (UTC)
Max El. Az.
Max El.
End time (UTC)
End Az.